Location: Unspecified
(48.7971°N, 123.6320°W)
Time: 07:51:12
(UTC-07:00)

Okean 3 - Visible Passes

Search period start: 25 June 2019 00:00
Search period end: 05 July 2019 00:00
Orbit: 578 x 600 km, 82.5° (Epoch: 25 June)

Date Brightness Start Highest point End Pass type
(mag) Time Alt. Az. Time Alt. Az. Time Alt. Az.
26 Jun 6.8 03:02:58 10° NE 03:03:27 10° ENE 03:03:57 10° ENE visible
27 Jun 6.4 03:09:19 10° NNE 03:11:39 14° ENE 03:13:57 10° E visible
28 Jun 6.1 03:16:40 10° NNE 03:19:48 19° ENE 03:22:54 10° ESE visible
29 Jun 5.6 03:24:14 10° NNE 03:27:54 26° ENE 03:31:31 10° SE visible
30 Jun 5.0 03:31:57 10° N 03:35:57 36° ENE 03:39:55 10° SE visible
01 Jul 4.3 03:39:45 10° N 03:43:59 51° ENE 03:48:09 10° SSE visible
02 Jul 3.7 03:47:38 10° N 03:51:58 74° E 03:56:14 10° SSE visible
03 Jul 6.3 02:20:00 10° NE 02:22:04 13° ENE 02:24:07 10° E visible
03 Jul 3.5 03:55:35 10° NNW 03:59:54 77° W 04:04:10 10° S visible
04 Jul 6.0 02:27:15 10° NNE 02:30:13 18° ENE 02:33:09 10° ESE visible
04 Jul 3.7 04:03:37 10° NNW 04:07:49 53° W 04:11:57 10° S visible
